TimeEDT,TemperatureF,Dew PointF,Humidity,Sea Level PressureIn,VisibilityMPH,Wind Direction,Wind SpeedMPH,Gust SpeedMPH,PrecipitationIn,Events,Conditions,WindDirDegrees,DateUTC
12:03 AM,51.8,48.2,88,28.69,7.0,SE,29.9,46.0,0.00,Rain,Light Rain,130,2012-10-30 04:03:00
12:54 AM,51.1,46.9,86,28.81,10.0,SE,21.9,36.8,0.00,Rain,Light Rain,140,2012-10-30 04:54:00
2:51 PM,48.2,39.2,71,29.37,10.0,SSW,6.9,-,N/A,,Overcast,210,2012-10-30 18:51:00
2:54 PM,48.0,39.0,71,29.38,10.0,SSW,8.1,-,N/A,,Overcast,200,2012-10-30 18:54:00
3:17 PM,48.2,39.2,71,29.39,10.0,South,9.2,-,N/A,,Overcast,190,2012-10-30 19:17:00
3:54 PM,48.0,39.0,71,29.40,10.0,SSW,10.4,-,N/A,,Overcast,210,2012-10-30 19:54:00
4:54 PM,46.9,37.9,71,29.42,10.0,SSW,9.2,-,0.00,,Overcast,200,2012-10-30 20:54:00
5:54 PM,46.0,39.0,76,29.45,10.0,Variable,5.8,-,N/A,,Overcast,0,2012-10-30 21:54:00
6:54 PM,45.0,39.0,80,29.47,10.0,Calm,Calm,-,0.00,,Overcast,0,2012-10-30 22:54:00
7:54 PM,45.0,37.9,76,29.48,10.0,SSW,9.2,-,N/A,,Overcast,200,2012-10-30 23:54:00
8:03 PM,44.6,37.4,76,29.48,10.0,South,6.9,-,N/A,Rain,Light Rain,180,2012-10-31 00:03:00
8:12 PM,44.6,37.4,76,29.48,10.0,SSW,6.9,-,0.00,Rain,Light Rain,200,2012-10-31 00:12:00
8:22 PM,44.6,39.2,81,29.48,10.0,Variable,4.6,-,0.00,,Overcast,0,2012-10-31 00:22:00
8:33 PM,44.6,39.2,81,29.48,10.0,SSW,8.1,-,0.00,Rain,Light Rain,200,2012-10-31 00:33:00
8:54 PM,44.1,39.0,82,29.49,10.0,Variable,5.8,-,0.00,,Overcast,0,2012-10-31 00:54:00
9:02 PM,44.6,39.2,81,29.49,10.0,South,6.9,-,N/A,,Mostly Cloudy,190,2012-10-31 01:02:00
9:27 PM,44.6,39.2,81,29.49,10.0,Variable,3.5,-,N/A,,Mostly Cloudy,0,2012-10-31 01:27:00
9:54 PM,44.1,37.9,79,29.50,10.0,Variable,5.8,-,N/A,,Overcast,0,2012-10-31 01:54:00
10:42 PM,42.8,37.4,81,29.50,10.0,SSW,4.6,-,0.00,Rain,Light Rain,200,2012-10-31 02:42:00
10:54 PM,43.0,37.9,82,29.50,10.0,South,5.8,-,0.00,,Overcast,190,2012-10-31 02:54:00
11:32 PM,42.8,37.4,81,29.49,10.0,SSW,5.8,-,N/A,,Overcast,200,2012-10-31 03:32:00
11:54 PM,43.0,39.0,86,29.50,10.0,Calm,Calm,-,N/A,,Overcast,0,2012-10-31 03:54:00